Poplar Bluff, MO

7:45 AM CST on December 03, 2016 (GMT -0600)
Poplar Bluff Municipal

Weather History for KPOF - November, 2014

Change the Weather History Date:

Tuesday, November 11, 2014

  Actual Average Record
Temperature  
Mean Temperature 44 °F -  
Max Temperature 57 °F 56 °F 79 °F (1927)
Min Temperature 30 °F 36 °F 17 °F (1950)
Degree Days  
Heating Degree Days 22    
Moisture  
Dew Point 35 °F    
Average Humidity 68    
Maximum Humidity 83    
Minimum Humidity 52    
Precipitation  
Precipitation 0.00 in - - ()
Sea Level Pressure  
Sea Level Pressure 29.98 in    
Wind  
Wind Speed 10 mph (NW)    
Max Wind Speed 20 mph    
Max Gust Speed 28 mph    
Visibility 10 miles    
Events Rain    
Averages and records for this station are not official NWS values.
T = Trace of Precipitation, MM = Missing Value Source: NWS Daily Summary

Daily Weather History Graph

Daily Weather History Graph

Search for Another Location

Airport or City:

Trip Planner

Search our weather history database for the weather conditions in past years. The results will help you decide how hot, cold, wet, or windy it might be!

Date:

Astronomy

Nov. 11, 2014 Rise Set
Actual Time 6:35 AM CST 4:54 PM CST
Civil Twilight 6:07 AM CST 5:22 PM CST
Nautical Twilight 5:36 AM CST 5:53 PM CST
Astronomical Twilight 5:06 AM CST 6:23 PM CST
Moon 9:18 PM CST (11/11) 10:41 AM CST (11/11)
Length of Visible Light 11h 14m
Length of Day
10h 19m
Waning Gibbous, 76% of the Moon is Illuminated
Nov 11
Waning Gibbous
Nov 14
Last Quarter
Nov 22
New
Nov 29
First Quarter
Dec 6
Full

Hourly Weather History & Observations

Time (CST) Temp. Windchill Dew Point Humidity Pressure Visibility Wind Dir Wind Speed Gust Speed Precip Events Conditions
12:53 AM 55.0 °F - 43.0 °F 64% 29.74 in 10.0 mi South 8.1 mph - N/A   Clear
1:53 AM 54.0 °F - 44.1 °F 69% 29.74 in 10.0 mi SSE 6.9 mph - N/A   Clear
2:53 AM 50.0 °F - 44.1 °F 80% 29.75 in 10.0 mi SSE 5.8 mph - N/A   Clear
3:53 AM 51.1 °F - 45.0 °F 80% 29.75 in 10.0 mi SSE 4.6 mph - N/A   Mostly Cloudy
4:53 AM 55.0 °F - 48.0 °F 77% 29.75 in 10.0 mi South 5.8 mph - N/A   Overcast
5:53 AM 55.9 °F - 48.9 °F 77% 29.76 in 10.0 mi South 6.9 mph - N/A   Overcast
6:53 AM 55.9 °F - 50.0 °F 80% 29.77 in 10.0 mi South 6.9 mph - N/A   Overcast
7:15 AM 57.0 °F - 51.1 °F 81% 29.78 in 10.0 mi SSW 4.6 mph - N/A   Overcast
7:53 AM 57.0 °F - 52.0 °F 83% 29.81 in 10.0 mi NW 12.7 mph - N/A   Overcast
8:53 AM 57.0 °F - 52.0 °F 83% 29.84 in 5.0 mi NW 6.9 mph - 0.00 in Rain Light Rain
9:23 AM 48.9 °F - 39.0 °F 69% 29.87 in 10.0 mi NW 19.6 mph 27.6 mph 0.00 in   Overcast
9:53 AM 48.0 °F - 36.0 °F 63% 29.90 in 10.0 mi NW 17.3 mph - 0.00 in   Overcast
10:53 AM 46.0 °F 38.5 °F 34.0 °F 63% 29.93 in 10.0 mi NW 19.6 mph 26.5 mph N/A   Overcast
11:53 AM 44.1 °F 37.4 °F 33.1 °F 65% 29.95 in 10.0 mi NW 13.8 mph - N/A   Overcast
12:16 PM 44.1 °F 37.1 °F 32.0 °F 63% 29.95 in 10.0 mi NW 15.0 mph - N/A   Overcast
12:53 PM 44.1 °F 36.5 °F 30.9 °F 60% 29.96 in 10.0 mi North 17.3 mph - N/A   Overcast
1:53 PM 48.0 °F - 32.0 °F 54% 29.98 in 10.0 mi NNW 13.8 mph 21.9 mph N/A   Partly Cloudy
2:53 PM 48.0 °F - 30.9 °F 52% 30.01 in 10.0 mi NNW 17.3 mph 23.0 mph N/A   Overcast
3:53 PM 45.0 °F 37.6 °F 28.0 °F 52% 30.06 in 10.0 mi NW 17.3 mph - N/A   Mostly Cloudy
4:53 PM 42.1 °F 34.5 °F 26.1 °F 53% 30.09 in 10.0 mi NNW 15.0 mph - N/A   Overcast
5:53 PM 39.0 °F 31.0 °F 25.0 °F 57% 30.13 in 10.0 mi NNW 13.8 mph - N/A   Clear
6:53 PM 37.0 °F 29.8 °F 24.1 °F 59% 30.17 in 10.0 mi North 10.4 mph - N/A   Clear
7:53 PM 35.1 °F 26.9 °F 23.0 °F 61% 30.18 in 10.0 mi North 11.5 mph - N/A   Clear
8:53 PM 33.1 °F 25.5 °F 23.0 °F 66% 30.21 in 10.0 mi North 9.2 mph - N/A   Clear
9:53 PM 30.9 °F 24.3 °F 24.1 °F 76% 30.24 in 10.0 mi NNW 6.9 mph - N/A   Mostly Cloudy
10:04 PM 30.9 °F 25.2 °F 24.1 °F 76% 30.22 in 10.0 mi North 5.8 mph - N/A   Scattered Clouds
10:53 PM 33.1 °F 23.4 °F 23.0 °F 66% 30.25 in 10.0 mi North 13.8 mph 18.4 mph N/A   Scattered Clouds
11:08 PM 33.1 °F 26.9 °F 23.0 °F 66% 30.24 in 10.0 mi North 6.9 mph - N/A   Mostly Cloudy
11:53 PM 33.1 °F 24.9 °F 23.0 °F 66% 30.26 in 10.0 mi North 10.4 mph - N/A   Overcast